Regional Weather Roundup
Issued by NWS Grand Forks, ND

Home | Current Version | Previous Version | Graphics & Text | Print | Product List | Glossary On
Versions: 1 2 3 4 5 6 7 8 9 10 11 12 13 14 15 16 17 18 19 20 21 22 23 24 25 26 27 28 29 30 31 32 33 34 35 36 37 38 39 40 41 42 43 44 45 46 47 48 49 50
000
ASUS43 KFGF 130810
RWRFGF
PRAIRIE TO PINES  WEATHER ROUNDUP
NATIONAL WEATHER SERVICE EASTERN NORTH DAKOTA/GRAND FORKS ND
200 AM CST SAT FEB 13 2016

 **SATELLITE DATA USED TO AUGMENT SKY COVER AT AUTOMATED STATIONS**
 *****  WEATHER ACROSS EASTERN NORTH DAKOTA  *****

CITY           SKY/WX    TMP DP  RH WIND       PRES   REMARKS
GRAND FORKS    CLOUDY    -8 -14  74 CALM      30.65F
GRAND FRKS AFB CLOUDY   -10 -16  73 SW2       30.63F
DEVILS LAKE    CLOUDY   -14 -19  79 SE5       30.53F WCI -26
FARGO          CLOUDY    -8 -14  74 CALM      30.65F
WAHPETON ARPT  CLOUDY    -8 -13  77 CALM      30.65F
$$

 ***** WEATHER ACROSS CENTRAL AND WESTERN NORTH DAKOTA  *****

CITY           SKY/WX    TMP DP  RH WIND       PRES   REMARKS
BISMARCK       CLOUDY     8  -3  61 SE13      30.45F WCI  -8
MINOT          CLOUDY     7  -4  60 SE12      30.40F WCI  -8
JAMESTOWN      CLOUDY    -6 -13  71 SE6       30.54F WCI -19
MINOT AFB      CLOUDY     5  -2  73 SE14      30.39F WCI -12
GARRISON         N/A      5  -3  69 SE14      30.38F WCI -12
WILLISTON      FLURRIES  13   7  77 SE10      30.25F WCI   0
DICKINSON      LGT SNOW  10   6  84 SE22      30.20F FOG     WCI -10
HETTINGER      LGT SNOW  14  10  84 SE16      30.25F FOG     WCI  -2
$$

 *****  OTHER AIRPORT OBSERVATIONS IN OUR AREA  *****

CITY           SKY/WX    TMP DP  RH WIND       PRES   REMARKS
WALHALLA       FAIR     -11 -18  70 CALM      30.61F
GRAFTON AIRPOR FAIR     -11 -15  84 S6        30.66F WCI -25
VALLEY CITY AR   N/A    -13 -17  84 S3        30.59F
CANDO          NOT AVBL
CAVALIER APRT  FAIR      -9 -15  77 S3        30.63F
GWINNER        FAIR      -6 -11  77 CALM      30.61F
SHEYENNE NWR     N/A    -16 -23  69 CALM      29.95S
ROLLA          FAIR      -8 -13  77 S9        30.46F WCI -25
 ***** THE ABOVE OBSERVATIONS ARE NON NWS ARE NOT QUALITY
       CONTROLLED AND MAY MIS-REPORT RAIN FOR SNOW...
$$

  *****  WEATHER ACROSS NORTHERN MINNESOTA  *****

CITY           SKY/WX    TMP DP  RH WIND       PRES   REMARKS
FLAG ISLAND    CLOUDY   -17 -24  70 NW3       30.57F
WARROAD        CLOUDY   -20 -26  76 W3        30.59S
ROSEAU         CLOUDY   -20 -26  76 CALM      30.61R
HALLOCK        CLOUDY   -15 -20  76 S3        30.64S
THF RVR FALLS  CLOUDY   -15 N/A N/A CALM      30.62F
BAUDETTE       CLOUDY   -17 -23  73 NW5       30.56F WCI -30
WASKISH        CLOUDY   -17 -22  76 W6        30.59R WCI -31
CROOKSTON      CLOUDY    -9 -15  77 CALM      30.66F
STEPHEN NDAWN    N/A    -15 -18  84 CALM        N/A
GREENBUSH NDAW   N/A    -18 -22  83 S2          N/A
$$
  *****  WEATHER ACROSS CENTRAL AND WEST MINNESOTA  *****

CITY           SKY/WX    TMP DP  RH WIND       PRES   REMARKS
FOSSTON          N/A    -26 -31  75 CALM      30.60F
BEMIDJI        CLOUDY   -18 -23  79 W5        30.58R WCI -31
PARK RAPIDS    CLOUDY   -18 -24  74 CALM      30.57S
ELBOW LAKE     FAIR      -7 -12  79 N3        30.63S
WADENA         CLOUDY   -15 -18  84 CALM      30.59S
DETROIT LAKES  CLOUDY   -13 -15  92 CALM      30.60S
MOORHEAD       CLOUDY    -8 -13  77 CALM      30.65F
FERGUS FALLS   CLOUDY    -9 -15  77 CALM      30.67S
MORRIS MN      CLOUDY    -8 -13  77 NW3       30.63F
STAPLES        CLOUDY   -17 -20  83 W5        30.60S WCI -29
$$
  *****  WEATHER ELSEWHERE ACROSS MINNESOTA  *****

CITY           SKY/WX    TMP DP  RH WIND       PRES   REMARKS
DULUTH         CLOUDY   -12 -21  64 NW9       30.53R WCI -30
INTRNTL FALLS  CLOUDY   -18 -23  77 NW5       30.55S WCI -31
ELY            CLOUDY   -17 -20  83 W7        30.49R WCI -33
CLOQUET        CLOUDY   -11 -20  64 NW7       30.55S WCI -26
WHEATON        CLOUDY    -8 -11  84 CALM      30.66F
BRAINERD       CLOUDY   -12 -19  71 NW3       30.60S
HIBBING        CLOUDY   -16 -22  74 NW7       30.53R WCI -32
ALEXANDRIA     CLOUDY    -9 -15  75 NW5       30.59S WCI -20
SAINT CLOUD    CLOUDY    -9 -16  71 NW6       30.63R WCI -22
MINNEAPOLIS    CLOUDY    -3 -12  65 NW9       30.64R WCI -19
$$

  *****  WEATHER ACROSS SOUTH DAKOTA  *****

CITY           SKY/WX    TMP DP  RH WIND       PRES   REMARKS
SIOUX FALLS    CLOUDY    -2  -8  76 NE7       30.60F WCI -15
BROOKINGS      CLOUDY    -7 -12  79 CALM      30.57F
WATERTOWN      CLOUDY    -5 -13  68 NE5       30.54F WCI -16
HURON          CLOUDY     3  -6  66 E8        30.59F WCI -10
SISSETON         N/A     -9 -14  78 SW3       30.62F
ABERDEEN       CLOUDY     0  -8  69 SE5       30.60F WCI -10
MITCHELL       CLOUDY     5  -3  69 E8        30.59F WCI  -8
PIERRE         CLOUDY    11   6  81 SE18      30.43F WCI  -7
MOBRIDGE       CLOUDY     8   1  73 SE12      30.43F WCI  -7
RAPID CITY     CLOUDY    26  23  88 SE15      30.15F WCI  14
$$

  *****  SOME WEATHER IN NEARBY STATES *****

CITY           SKY/WX    TMP DP  RH WIND       PRES   REMARKS
GLASGOW MT     CLOUDY    17  13  84 E20       30.04F WCI   1
GREAT FALLS MT CLEAR     41  32  70 SW14      29.92F
CHEYENNE WY    CLOUDY    31  29  92 SW8       30.13F WCI  23
SCOTTSBLUFF NE CLOUDY    33  30  88 SE12      30.19F WCI  24
OMAHA NE       CLOUDY    11   0  61 N8        30.64F WCI  -1
DES MOINES IA  CLOUDY     3  -4  72 N6        30.64S WCI  -8
DAVENPORT IA   CLEAR      5  -5  63 NW8       30.59R WCI  -8
CHICAGO IL     CLEAR      5 -11  47 NW16      30.50R WCI -14
EAU CLAIRE WI  CLOUDY    -3 -17  51 NW6       30.58R WCI -15
LA CROSSE WI   PTCLDY    -1 -14  53 NW6       30.61R WCI -13
$$

  *****  SOME NATIONAL WEATHER *****

CITY           SKY/WX    TMP DP  RH WIND       PRES   REMARKS
LA GUARDIA NY  MOCLDY    23  12  62 W15       29.88F WCI  10
RALEIGH NC     PTCLDY    32  19  58 NW7       30.04S
ATLANTA GA     PTCLDY    35  24  64 NW17      30.21R WCI  25
NEW ORLEANS LA PTCLDY    55  38  52 NE9       30.30S
OKLAHOMA CITY  PTCLDY    37  27  67 NE14      30.43F
ALBUQUERQUE NM CLOUDY    45  20  36 N8        30.32S
SALT LAKE CITY CLOUDY    29  27  92 NW6       30.32S FOG     WCI  23
LOS ANGELES CA PTCLDY    59  53  80 CALM      30.09S
BOISE ID       CLOUDY    36  33  89 NW6       30.18S
SEATTLE WA     CLOUDY    48  41  76 S8        30.20R
$$

*** WEATHER ACROSS MANITOBA...SASKATCHEWAN AND ONTARIO ***
                ***ONTARIO***

CITY           SKY/WX    TMP DP  RH WIND       PRES   REMARKS
GERALDTON      CRYSTALS -18 -26  69 W3        30.31S
THUNDER BAY    CLEAR    -11 -20  64 W5        30.50R WCI -23
SIOUX LOOKOUT  CLEAR    -18 -24  76 NW6       30.46R WCI -33
TORONTO        PTCLDY    -4 -15  59 N23G30    30.12R WCI -29
BIG TROUT LK   FLURRIES -20 -26  76 NW9       30.37S WCI -40
PICKLE LAKE    NOT AVBL
DRYDEN         CLEAR    -18 -24  76 W9        30.48R WCI -38
KENORA         CLEAR    -17 -24  70 NW8       30.53R WCI -34
$$
                *** MANITOBA***

CITY           SKY/WX    TMP DP  RH WIND       PRES   REMARKS
BRANDON        PTCLDY   -20 -27  69 NE6       30.49F WCI -36
DAUPHIN        CLEAR    -20 -26  76 W8        30.51F WCI -39
ISLAND LAKE    NOT AVBL
PILOT MOUND      N/A    -22 -27  76 SE6         N/A  WCI -38
THE PAS        CLEAR    -18 -26  69 SE8       30.44F WCI -37
THOMPSON       CLEAR    -22 -27  76 W3        30.47F
WINNIPEG       NOT AVBL
LYNN LAKE      CLEAR    -22 -27  76 S5        30.33F WCI -36
CHURCHILL      PTCLDY   -20 -26  76 W8        30.41R WCI -39
$$
                ***SASKATCHEWAN***

CITY           SKY/WX    TMP DP  RH WIND       PRES   REMARKS
ESTEVAN        NOT AVBL
KINDERSLEY     FLURRIES  16  14  93 SE18G25   29.87F WCI  -1
LLOYDMINSTER   FLURRIES   9   5  85 SE13      29.92F WCI  -7
PRINCE ALBERT  PTCLDY    -9 -17  70 E10       30.20F WCI -28
REGINA         FLURRIES   9   1  72 SE23G31   30.19F WCI -12
YORKTON        MOCLDY    -8 -13  77 SE12      30.35F WCI -27
N. BATTLEFORD  LGT SNOW   9   5  85 SE20G26   30.02F WCI -11
LA RONGE       CLEAR    -17 -22  76 E6        30.23F WCI -31
SASKATOON      CLOUDY    10   3  72 SE12G17   30.10F WCI  -4
SWIFT CURRENT  CLOUDY    18  16  93 S23G31    29.92F WCI   0
$$
NOTE: THESE ARE AUTOMATED STATIONS WITH LIMITED QUALITY CONTROL
      "FAIR" INDICATES FEW OR NO CLOUDS BELOW 12,000 FEET WITH NO
      SIGNIFICANT WEATHER AND/OR OBSTRUCTIONS TO VISIBILITY.
      SKY/WX - SKY CONDITION AND SIGNIFICANT WEATHER.
      TMP - AIR TEMPERATURE.    DP   - DEWPOINT TEMPERATURE.
      RH  - RELATIVE HUMIDITY.  PRES - PRESSURE.
      HX  - HEAT INDEX.         WCI  - WIND CHILL INDEX.
$



USA.gov is the U.S. government's official web portal to all federal, state and local government web resources and services.